Location: Orange Harbor Mobile Home Park
(26.6923°N, 81.7937°W)
Time: 08:40:57
(UTC+00:00)

Cosmos 1814 Rocket - Pass Details

Date: 19 September 2020
Orbit: 744 x 788 km, 74.1° (Epoch: 29 October)

Event Time Altitude Azimuth Distance (km) Brightness Sun altitude
Rises 10:18:53 0° 200° (SSW) 3,177 6.9 -13.2°
Reaches altitude 10° 10:21:14 10° 202° (SSW) 2,261 6.1 -12.7°
Maximum altitude 10:26:20 70° 285° (WNW) 804 3.9 -11.6°
Drops below altitude 10° 10:31:31 10° 10° (N) 2,297 6.7 -10.4°
Sets 10:33:55 0° 12° (NNE) 3,233 7.5 -9.9°
